Probability
0 0 0 0 0 0 0 0 0 0 0 0 0 0 0 0 0 0 0 0 0 0 0 0 0 0 0 0 0 0 0 0 0 0 0 0 0 0 0 0 0 0 0
0 0 0 0 0 0 0 0 0 0 0 0 0 0 0 0 0 0 0 0 0 0 0 0 0 0 0 0 0 0 0 0 0 0 0 0 0 0 0 0 0 0 0
0 0 0 0 0 0 0 0 0 0 0 0 0 0 0 0 0 0 0 0 0 0 0 0 0 0 0 0 0 0 0 0 0 0 0 0 0 0 0 0 0 0 0
0 0 0 0 0 0 0 0 0 0 0 0 0 0 0 0 0 0 0 0 0 0 0 0 0 0 0 0 0 0 0 0 0 0 0 0 0 0 0 0 0 0 0
0 0 0 0 0 0 0 0 0 0 0 0 0 0 0 0 0 0 0 0 0 0 0 0 0 0 0 0 0 0 0 0 0 0 0 0 0 0 0 0 0 0 0
0 0 0 0 0 0 0 0 0 0 0 0 0 0 0 0 0 0 0 0 0 0 0 0 0 0 0 0 0 0 0 0 0 0 0 0 0 0 0 0 0 0 0
0 0 0 0 0 0 0 0 0 0 0 0 0 0 0 0 0 0 0 0 0 0 0 0 0 0 0 0 0 0 0 0 0 0 0 0 0 0 0 0 0 0 0
0 0 0 0 0 0 0 0 0 0 0 0 0 0 0 0 0 0 0 0 0 0 0 0 0 0 0 0 0 0 0 0 0 0 0 0 0 0 0 0 0 0 0
0 0 0 0 0 0 0 0 0 0 0 0 0 0 0 0 0 0 0 0 0 0 0 0 0 0 0 0 0 0 0 0 0 0 0 0 0 0 0 0 0 0 0
0 0 0 0 0 0 0 0 0 0 0 0 0 0 0 0 0 0 0 0 0 0 0 0 0 0 0 0 0 0 0 0 0 0 0 0 0 0 0 0 0 0 0
0 0 0 0 0 0 0 0 0 0 0 0 0 0 0 0 0 0 0 0 0 0 0 0 0 0 0 0 0 0 0 0 0 0 0 0 0 0 0 0 0 0 0
0 0 0 0 0 0 0 0 0 0 0 0 0 0 0 0 0 0 0 0 0 0 0 0 0 0 0 0 0 0 0 0 0 0 0 0 0 0 0 0 0 0 0
0 0 0 0 0 0 0 0 0 0 0 0 0 0 0 0 0 0 0 0 0 0 0 0 0 0 0 0 0 0 0 0 0 0 0 0 0 0 0 0 0 0 0
0 0 0 0 0 0 0 0 0 0 0 0 0 0 0 0 0 0 0 0 0 0 0 0 0 0 0 0 0 0 0 0 0 0 0 0 0 0 0 0 0 0 0
0 0 0 0 0 0 0 0 0 0 0 0 0 0 0 0 0 0 0 0 0 0 0 0 0 0 0 0 0 0 0 0 0 0 0 0 0 0 0 0 0 0 0
0 0 0 0 0 0 0 0 0 0 0 0 0 0 0 0 0 0 0 0 0 0 0 0 0 0 0 0 0 0 0 0 0 0 0 0 0 0 0 0 0 0 0
0 0 0 0 0 0 0 0 0 0 0 0 0 0 0 0 0 0 0 0 0 0 0 0 0 0 0 0 0 0 0 0 0 0 0 0 0 0 0 0 0 0 0
0 0 0 0 0 0 0 0 0 0 0 0 0 0 0 0 0 0 0 0 0 0 0 0 0 0 0 0 0 0 0 0 0 0 0 0 0 0 0 0 0 0 0
0 0 0 0 0 0 0 0 0 0 0 0 0 0 0 0 0 0 0 0 0 0 0 0 0 0 0 0 0 0 0 0 0 0 0 0 0 0 0 0 0 0 0
0 0 0 0 0 0 0 0 0 0 0 0 0 0 0 0 0 0 0 0 0 0 0 0 0 0 0 0 0 0 0 0 0 0 0 0 0 0 0 0 0 0 0
0 0 0 0 0 0 0 0 0 0 0 0 0 0 0 0 0 0 0 0 0 0 0 0 0 0 0 0 0 0 0 0 0 0 0 0 0 0 0 0 0 0 0
0 0 0 0 0 0 0 0 0 0 0 0 0 0 0 0 0 0 0 0 0 0 0 0 0 0 0 0 0 0 0 0 0 0 0 0 0 0 0 0 0 0 0
0 0 0 0 0 0 0 0 0 0 0 0 0 0 0 0 0 0 0 0 0 0 0 0 0 0 0 0 0 0 0 0 0 0 0 0 0 0 0 0 0 0 0
0 0 0 0 0 0 0 0 0 0 0 0 0 0 0 0 0 0 0 0 0 0 0 0 0 0 0 0 0 0 0 0 0 0 0 0 0 0 0 0 0 0 0
0 0 0 0 0 0 0 0 0 0 0 0 0 0 0 0 0 0 0 0 0 0 0 0 0 0 0 0 0 0 0 0 0 0 0 0 0 0 0 0 0 0 0
0 0 0 0 0 0 0 0 0 0 0 0 0 0 0 0 0 0 0 0 0 0 0 0 0 0 0 0 0 0 0 0 0 0 0 0 0 0 0 0 0 0 0
Wind_Speed
4 5 10 11 13 13 13 14 14 15 16 17 17 18 18 18 18 19 19 19 19 19 19 20 20 20 20 20 21 21 21 21 21 21 21 21 20 20 20 19 17 12 20
7 7 10 11 13 13 14 14 14 14 16 16 17 17 18 18 18 18 18 18 19 19 19 19 19 19 19 19 20 20 20 20 20 19 19 18 20 20 20 19 18 13 20
9 8 9 11 13 13 13 13 13 15 16 16 17 17 17 18 18 18 18 18 18 18 18 18 18 18 18 18 19 20 20 19 19 18 16 8 12 19 19 19 19 19 18
10 8 9 11 13 14 13 13 13 15 16 16 16 17 17 17 17 18 18 18 18 18 18 18 18 17 17 18 19 19 19 18 17 15 8 6 8 17 18 18 18 17 17
9 7 9 12 13 14 14 14 14 15 16 16 16 17 17 17 17 17 17 17 17 17 17 17 17 17 17 18 18 19 18 18 16 12 6 6 6 15 17 16 16 16 15
9 8 9 12 13 14 14 14 14 15 16 16 16 16 16 16 17 17 17 17 17 17 17 17 16 17 17 17 18 18 17 16 11 6 6 5 5 14 15 15 14 14 13
8 7 8 11 12 13 14 14 15 15 16 16 16 16 16 16 16 16 16 16 16 16 16 16 15 15 16 16 16 16 16 14 7 6 5 4 7 14 14 13 13 13 13
10 7 7 11 11 12 13 13 14 14 15 15 15 15 16 15 15 15 16 16 16 15 15 15 14 14 14 14 14 14 12 9 8 6 5 4 8 12 13 12 12 12 12
10 8 6 7 9 11 11 12 12 13 13 13 14 14 13 13 14 14 14 15 15 15 14 13 13 12 13 13 13 13 12 10 6 4 5 3 8 11 12 12 12 12 12
9 8 7 6 6 7 8 11 11 12 12 12 13 12 12 12 12 11 11 13 14 13 13 12 11 10 10 11 11 11 10 8 5 4 3 3 8 11 12 12 11 11 12
9 8 8 8 7 7 7 9 10 11 11 11 10 12 10 6 6 7 9 11 12 12 11 10 9 7 6 7 8 9 7 3 4 3 2 4 8 10 10 10 11 11 13
12 10 9 9 9 8 7 6 5 5 6 6 5 6 5 5 4 6 9 9 9 9 8 8 6 4 3 3 4 6 3 4 3 2 2 5 8 9 9 9 10 11 12
12 11 10 10 9 8 6 6 3 3 4 5 6 5 5 4 4 4 3 4 4 5 3 3 2 1 1 2 2 3 3 3 2 1 2 5 7 8 8 9 11 12 12
12 12 11 11 10 9 8 6 5 4 4 4 5 6 5 4 4 4 3 3 2 2 2 2 1 2 2 2 3 4 4 3 2 1 2 4 5 7 8 9 10 11 11
12 12 12 12 12 10 9 7 7 6 5 5 5 6 7 6 5 4 3 3 3 2 3 3 2 3 2 2 2 4 4 4 3 2 2 5 6 7 8 9 10 10 11
13 13 12 13 13 11 9 8 7 7 6 6 5 7 8 6 6 5 5 4 4 3 3 3 4 3 2 2 2 3 4 4 4 3 2 4 6 7 8 9 9 10 11
14 13 13 13 13 13 11 10 8 7 7 7 7 8 8 8 8 6 5 5 5 4 4 3 3 2 2 2 2 3 3 4 4 4 3 2 3 7 8 8 8 9 10
11 13 14 12 13 13 11 9 7 7 8 7 7 7 9 9 9 7 6 6 5 4 4 4 3 3 2 2 2 2 2 3 4 4 3 3 3 3 6 9 9 9 9
15 14 14 13 14 13 11 9 7 7 8 7 7 7 8 9 9 7 7 6 6 5 4 4 3 3 3 3 2 2 2 3 4 4 5 4 4 4 3 7 9 9 9
15 15 15 14 13 12 9 7 6 6 7 7 8 9 10 9 10 8 7 7 7 5 5 4 4 3 3 3 2 2 1 2 3 4 5 4 4 4 4 4 4 5 8
14 16 17 17 15 12 10 10 10 10 8 8 9 10 11 10 11 10 8 8 8 7 7 7 5 4 3 3 3 1 1 1 2 3 4 4 5 4 4 4 3 2 3
18 19 18 18 17 15 13 11 8 7 6 6 6 9 11 12 12 11 10 9 9 8 8 8 6 4 4 4 4 3 2 1 1 3 3 4 5 4 4 5 4 3 2
19 20 18 20 19 18 14 7 5 4 3 6 8 10 12 13 13 12 12 10 10 10 9 10 9 8 6 5 4 5 5 5 2 2 4 4 5 4 4 4 5 4 4
21 19 19 19 19 18 16 12 13 13 14 13 10 10 10 12 13 13 13 12 11 10 10 10 10 8 7 6 4 4 3 5 5 3 2 3 5 5 5 5 5 5 4
19 18 18 18 18 18 17 18 17 15 13 7 7 9 11 11 13 14 14 13 12 11 11 10 11 10 8 7 6 4 4 2 3 4 4 4 4 5 5 5 5 5 5
15 15 15 17 18 18 19 19 19 19 15 11 12 12 11 10 11 14 14 13 13 12 13 13 12 12 11 9 8 6 5 5 6 5 4 4 5 4 4 5 5 5 5
Wind_Direction
141 148 134 127 120 115 111 108 106 105 104 102 101 99 97 96 94 93 91 89 88 87 86 86 86 85 84 84 82 80 77 75 75 75 75 76 75 75 73 71 67 62 68
143 142 132 127 123 119 115 112 110 109 108 106 104 103 101 100 98 96 94 92 91 90 90 90 89 88 87 87 87 85 82 79 76 75 73 73 74 73 72 71 70 68 68
133 133 129 126 125 122 120 118 115 113 111 109 106 106 104 102 101 100 97 95 94 94 94 94 92 90 89 90 89 87 84 81 79 76 70 59 71 74 73 70 69 68 67
133 132 131 128 128 127 123 120 118 116 114 111 109 108 107 106 105 103 101 99 98 98 98 97 94 91 90 90 91 89 87 83 79 73 59 52 67 75 73 71 68 66 65
127 128 133 131 131 130 126 122 119 118 117 116 113 110 109 108 107 105 104 103 101 100 100 99 96 92 92 92 93 92 89 85 78 65 50 48 61 76 74 72 69 67 65
127 130 138 135 135 133 130 126 123 122 120 119 116 113 112 111 110 109 107 105 103 103 103 101 98 93 91 93 94 94 92 86 71 53 46 45 58 76 75 73 71 70 66
130 133 139 136 135 133 132 131 128 126 123 121 119 117 116 116 114 113 111 109 107 106 105 104 101 95 91 92 94 97 95 88 71 54 43 41 68 76 73 72 71 68 65
136 134 135 134 133 132 131 131 129 128 126 125 123 122 121 121 119 117 116 113 112 110 109 108 104 98 92 92 97 100 96 88 75 58 42 37 71 76 73 72 72 70 66
137 135 133 134 133 131 129 127 126 126 126 126 125 121 119 120 118 117 118 118 117 114 113 111 107 99 91 90 93 97 99 90 73 51 40 27 64 74 73 70 68 67 65
141 142 141 136 131 128 127 128 127 125 124 122 121 115 113 113 112 112 116 121 121 119 118 115 109 98 87 86 91 100 103 88 75 56 27 32 65 73 70 66 65 65 65
154 154 150 145 140 135 135 136 130 127 127 125 123 121 115 110 109 110 120 123 125 125 125 121 113 96 74 69 83 99 102 95 87 58 23 46 70 74 72 69 68 69 70
169 168 162 156 152 148 145 138 134 134 134 132 135 130 123 121 120 119 123 127 130 131 130 125 114 88 65 58 75 89 97 104 87 65 38 60 74 75 76 74 75 75 74
171 172 172 166 161 157 149 153 149 143 145 147 148 142 133 126 123 117 118 124 128 129 120 120 101 81 96 102 95 100 112 107 93 64 47 62 75 80 81 81 81 80 78
174 178 176 172 168 165 159 162 161 159 162 165 165 154 145 143 145 147 147 154 154 149 152 152 159 165 142 130 120 113 118 120 115 88 56 62 75 86 87 88 86 84 82
181 181 179 176 175 172 167 170 170 172 175 175 171 167 162 158 162 164 166 172 180 176 174 175 177 168 154 142 131 125 127 128 125 107 68 68 75 86 91 91 89 88 87
188 185 180 179 178 175 176 176 176 178 178 179 179 177 173 168 168 171 176 182 190 189 185 181 180 171 169 156 150 143 141 135 127 117 102 75 73 81 89 91 89 90 91
192 186 184 181 180 180 180 181 179 182 179 183 185 183 181 176 175 177 180 188 194 188 181 176 180 168 171 170 168 159 151 146 139 129 119 95 75 73 84 91 92 92 94
191 190 188 184 183 184 183 182 180 182 182 186 186 186 187 185 181 180 184 192 190 180 174 173 174 171 179 180 180 172 156 149 147 141 129 116 96 80 79 87 86 88 93
196 193 191 188 186 187 185 181 180 181 186 187 187 190 192 190 186 184 189 191 182 179 181 179 178 170 172 183 182 171 161 157 155 147 142 134 120 106 87 85 76 75 84
198 196 195 193 190 185 182 180 180 186 191 191 192 195 193 194 191 188 191 190 183 182 187 184 180 177 173 169 151 142 156 163 153 153 152 143 136 128 115 98 72 67 80
197 196 196 196 193 186 188 191 193 199 196 198 199 197 197 195 193 192 194 192 190 192 194 187 174 176 181 149 123 103 41 114 155 157 151 149 150 145 134 123 104 80 67
199 199 198 199 196 195 198 197 198 195 199 202 200 201 201 199 197 198 197 197 196 195 195 191 178 173 183 173 151 144 170 196 205 173 163 161 159 150 150 146 134 120 98
202 201 200 200 199 198 194 182 175 180 190 200 206 207 207 204 203 202 202 199 198 198 201 200 191 185 190 198 184 163 172 201 180 178 193 178 170 166 163 157 154 147 136
205 202 202 200 200 198 192 190 190 200 208 210 207 207 205 206 207 206 204 203 203 203 205 204 201 197 185 195 208 214 188 159 163 176 190 190 184 183 179 172 166 163 154
205 201 201 199 200 198 196 198 200 209 215 208 200 205 208 208 210 210 208 206 207 208 209 205 202 203 202 199 193 186 196 193 170 162 185 187 196 202 193 181 173 171 169
204 200 199 198 201 198 199 201 205 210 210 203 205 208 210 210 212 213 212 211 211 212 211 210 208 208 210 209 204 193 180 179 190 183 179 181 195 197 190 185 183 179 177